Tacoma Narrows, WA

4:33 PM PST on February 18, 2018 (GMT -0800)
Tacoma Narrows

Weather History for KTIW - September, 2012

Change the Weather History Date:

Sunday, September 16, 2012

  Actual Average Record
Temperature  
Mean Temperature 60 °F -  
Max Temperature 72 °F 66 °F 78 °F (2008)
Min Temperature 48 °F 50 °F 48 °F (2006)
Degree Days  
Heating Degree Days 6    
Growing Degree Days 10 (Base 50)    
Moisture  
Dew Point 49 °F    
Average Humidity 69    
Maximum Humidity 94    
Minimum Humidity 42    
Precipitation  
Precipitation 0.00 in - - ()
Sea Level Pressure  
Sea Level Pressure 30.17 in    
Wind  
Wind Speed 3 mph (North)    
Max Wind Speed 10 mph    
Max Gust Speed -    
Visibility 9 miles    
Events      
Averages and records for this station are not official NWS values.
T = Trace of Precipitation, MM = Missing Value Source: NWS Daily Summary

Daily Weather History Graph

Daily Weather History Graph

Search for Another Location

Airport or City:

Trip Planner

Search our weather history database for the weather conditions in past years. The results will help you decide how hot, cold, wet, or windy it might be!

Date:

Astronomy

Sep. 16, 2012 Rise Set
Actual Time 6:49 AM PDT 7:19 PM PDT
Civil Twilight 6:19 AM PDT 7:49 PM PDT
Nautical Twilight 5:42 AM PDT 8:25 PM PDT
Astronomical Twilight 5:04 AM PDT 9:03 PM PDT
Moon 7:42 AM PDT (9/16) 7:17 PM PDT (9/16)
Length of Visible Light 13h 30m
Length of Day
12h 29m
New Moon, 1% of the Moon is Illuminated
Sep 16
New Moon
Sep 22
First Quarter
Sep 29
Full
Oct 8
Last Quarter
Oct 15
New

Hourly Weather History & Observations

Time (PDT) Temp. Dew Point Humidity Pressure Visibility Wind Dir Wind Speed Gust Speed Precip Events Conditions
12:53 AM 55.0 °F 48.0 °F 77% 30.19 in 10.0 mi Calm Calm - N/A   Clear
1:53 AM 54.0 °F 48.0 °F 80% 30.19 in 10.0 mi Calm Calm - N/A   Clear
2:53 AM 52.0 °F 48.0 °F 86% 30.19 in 9.0 mi Calm Calm - N/A   Clear
3:53 AM 51.1 °F 48.0 °F 89% 30.19 in 9.0 mi Calm Calm - N/A   Clear
4:53 AM 48.2 °F 46.4 °F 93% 30.18 in 6.0 mi South 4.6 mph - N/A   Clear
5:53 AM 51.1 °F 48.0 °F 89% 30.19 in 7.0 mi Calm Calm - N/A   Clear
6:53 AM 50.0 °F 48.0 °F 93% 30.21 in 2.5 mi Calm Calm - N/A   Clear
7:02 AM 50.0 °F 48.2 °F 94% 30.21 in 5.0 mi Calm Calm - N/A   Clear
7:53 AM 50.0 °F 48.0 °F 93% 30.22 in 5.0 mi SSW 3.5 mph - N/A   Scattered Clouds
8:53 AM 54.0 °F 50.0 °F 86% 30.22 in 7.0 mi Calm Calm - N/A   Partly Cloudy
9:53 AM 57.0 °F 50.0 °F 77% 30.22 in 9.0 mi Calm Calm - N/A   Clear
10:53 AM 59.0 °F 50.0 °F 72% 30.22 in 10.0 mi Variable 4.6 mph - N/A   Clear
11:53 AM 63.0 °F 50.0 °F 63% 30.21 in 10.0 mi North 8.1 mph - N/A   Clear
12:53 PM 66.0 °F 50.0 °F 56% 30.20 in 10.0 mi NNE 8.1 mph - N/A   Clear
1:53 PM 66.9 °F 48.9 °F 52% 30.18 in 10.0 mi NNE 10.4 mph - N/A   Clear
2:53 PM 70.0 °F 48.9 °F 47% 30.16 in 10.0 mi NNE 9.2 mph - N/A   Clear
3:53 PM 71.1 °F 46.9 °F 42% 30.15 in 10.0 mi North 9.2 mph - N/A   Clear
4:53 PM 71.1 °F 48.9 °F 45% 30.14 in 10.0 mi North 8.1 mph - N/A   Clear
5:53 PM 70.0 °F 48.0 °F 46% 30.13 in 10.0 mi North 8.1 mph - N/A   Clear
6:53 PM 68.0 °F 46.9 °F 47% 30.12 in 10.0 mi North 9.2 mph - N/A   Clear
7:53 PM 66.0 °F 48.0 °F 52% 30.12 in 10.0 mi North 5.8 mph - N/A   Clear
8:53 PM 64.9 °F 48.9 °F 56% 30.13 in 10.0 mi North 6.9 mph - N/A   Clear
9:53 PM 64.0 °F 48.9 °F 58% 30.13 in 10.0 mi Variable 3.5 mph - N/A   Clear
10:53 PM 63.0 °F 50.0 °F 63% 30.14 in 10.0 mi Calm Calm - N/A   Clear
11:53 PM 55.9 °F 48.0 °F 75% 30.12 in 10.0 mi NNW 4.6 mph - N/A   Clear